Weather History for Jackson, WY

Change the Weather History Date:

Tuesday, April 29, 2014

  Actual Average Record
Temperature  
Mean Temperature 30 °F -  
Max Temperature 44 °F 55 °F 74 °F (1987)
Min Temperature 15 °F 25 °F 15 °F (1990)
Degree Days  
Heating Degree Days 36    
Moisture  
Dew Point 20 °F    
Average Humidity 75    
Maximum Humidity 100    
Minimum Humidity 31    
Precipitation  
Precipitation 0.00 in - - ()
Sea Level Pressure  
Sea Level Pressure 30.41 in    
Wind  
Wind Speed 6 mph (North)    
Max Wind Speed 21 mph    
Max Gust Speed 29 mph    
Visibility 10 miles    
Events      
Averages and records for this station are not official NWS values.
T = Trace of Precipitation, MM = Missing Value Source: NWS Daily Summary

Daily Weather History Graph

Daily Weather History Graph

Search for Another Location

Airport:

Trip Planner

Search our weather history database for the weather conditions in past years. The results will help you decide how hot, cold, wet, or windy it might be!

Date:

Astronomy

Apr. 29, 2014 Rise Set
Actual Time 6:18 AM MDT 8:23 PM MDT
Civil Twilight 5:47 AM MDT 8:54 PM MDT
Nautical Twilight 5:08 AM MDT 9:32 PM MDT
Astronomical Twilight 4:26 AM MDT 10:15 PM MDT
Moon 6:39 AM MDT (4/29) 9:07 PM MDT (4/29)
Length of Visible Light 15h 07m
Length of Day
14h 04m
New Moon, 0% of the Moon is Illuminated
Apr 29
New Moon
May 6
First Quarter
May 14
Full
May 21
Last Quarter
May 28
New

Hourly Weather History & Observations

Time (MDT) Temp. Windchill Dew Point Humidity Pressure Visibility Wind Dir Wind Speed Gust Speed Precip Events Conditions
12:15 AM 24.8 °F 19.1 °F 24.8 °F 100% 30.30 in 10.0 mi NNE 4.6 mph - N/A   Clear
12:35 AM 21.2 °F 13.6 °F 21.2 °F 100% 30.30 in 10.0 mi North 5.8 mph - N/A   Clear
12:55 AM 21.2 °F 12.6 °F 21.2 °F 100% 30.31 in 1.8 mi North 6.9 mph - N/A   Mostly Cloudy
1:15 AM 23.0 °F - 23.0 °F 100% 30.32 in - Calm Calm - N/A   Overcast
1:35 AM 21.2 °F 16.4 °F 21.2 °F 100% 30.33 in - NNE 3.5 mph - N/A   Overcast
1:55 AM 21.2 °F 13.6 °F 19.4 °F 93% 30.33 in - NE 5.8 mph - N/A   Overcast
2:15 AM 19.4 °F 14.3 °F 19.4 °F 100% 30.34 in 10.0 mi ENE 3.5 mph - N/A   Scattered Clouds
2:35 AM 19.4 °F 14.3 °F 19.4 °F 100% 30.35 in 10.0 mi NE 3.5 mph - N/A   Partly Cloudy
2:55 AM 19.4 °F 12.8 °F 19.4 °F 100% 30.35 in - NE 4.6 mph - N/A   Unknown
3:15 AM 19.4 °F 12.8 °F 19.4 °F 100% 30.35 in - North 4.6 mph - N/A   Unknown
3:35 AM 19.4 °F 14.3 °F 19.4 °F 100% 30.35 in - NNW 3.5 mph - N/A   Unknown
3:55 AM 17.6 °F 8.2 °F 15.8 °F 93% 30.36 in - North 6.9 mph - N/A   Unknown
4:15 AM 17.6 °F 9.3 °F 15.8 °F 93% 30.37 in - North 5.8 mph - N/A   Unknown
4:35 AM 17.6 °F 10.7 °F 17.6 °F 100% 30.37 in 10.0 mi NNW 4.6 mph - N/A   Clear
4:55 AM 17.6 °F - 15.8 °F 93% 30.37 in 10.0 mi Calm Calm - N/A   Clear
5:15 AM 19.4 °F 14.3 °F 19.4 °F 100% 30.38 in 10.0 mi WNW 3.5 mph - N/A   Clear
5:35 AM 17.6 °F - 15.8 °F 93% 30.38 in - Calm Calm - N/A   Unknown
5:55 AM 15.8 °F - 15.8 °F 100% 30.38 in - Calm Calm - N/A   Unknown
6:15 AM 15.8 °F - 14.0 °F 93% 30.39 in - Calm Calm - N/A   Unknown
6:35 AM 15.8 °F - 14.0 °F 93% 30.40 in - Calm Calm - N/A   Unknown
6:55 AM 17.6 °F 8.2 °F 17.6 °F 100% 30.41 in 10.0 mi North 6.9 mph - N/A   Clear
8:16 AM 26.6 °F - 24.8 °F 93% 30.43 in 10.0 mi Calm Calm - N/A   Unknown
9:16 AM 30.2 °F 24.3 °F 23.0 °F 75% 30.44 in 10.0 mi NNW 5.8 mph - N/A   Clear
9:48 AM 33.8 °F 25.3 °F 19.4 °F 56% 30.44 in 10.0 mi North 11.5 mph - N/A   Clear
10:51 AM 35.6 °F 24.5 °F 17.6 °F 48% 30.44 in 10.0 mi North 20.7 mph 28.8 mph N/A   Mostly Cloudy
11:58 AM 39.2 °F - 19.4 °F 45% 30.45 in 10.0 mi N/A N/A - N/A   Mostly Cloudy
12:51 PM 39.2 °F 30.8 °F 15.8 °F 39% 30.44 in 10.0 mi NNW 15.0 mph 24.2 mph N/A   Mostly Cloudy
1:55 PM 42.8 °F 34.8 °F 17.6 °F 36% 30.43 in 10.0 mi North 17.3 mph 20.7 mph N/A   Mostly Cloudy
2:53 PM 44.6 °F 36.6 °F 19.4 °F 37% 30.43 in 10.0 mi North 19.6 mph - N/A   Scattered Clouds
3:51 PM 42.8 °F 34.8 °F 19.4 °F 39% 30.44 in 10.0 mi North 17.3 mph - N/A   Mostly Cloudy
4:53 PM 44.6 °F 38.1 °F 15.8 °F 31% 30.44 in 10.0 mi North 13.8 mph - N/A   Mostly Cloudy
5:53 PM 44.6 °F 37.2 °F 17.6 °F 34% 30.45 in 10.0 mi North 17.3 mph - N/A   Partly Cloudy
6:53 PM 42.8 °F 34.8 °F 23.0 °F 46% 30.46 in 10.0 mi North 17.3 mph - N/A   Partly Cloudy
7:51 PM 37.4 °F 32.8 °F 21.2 °F 52% 30.46 in 10.0 mi North 5.8 mph - N/A   Partly Cloudy
9:15 PM 35.6 °F 29.2 °F 21.2 °F 56% 30.47 in - NNW 8.1 mph - N/A   Clear
9:35 PM 33.8 °F 27.7 °F 21.2 °F 60% 30.48 in - NW 6.9 mph - N/A   Clear
9:55 PM 33.8 °F 27.7 °F 21.2 °F 60% 30.48 in - NNW 6.9 mph - N/A   Clear
10:15 PM 33.8 °F 28.6 °F 21.2 °F 60% 30.49 in - North 5.8 mph - N/A   Clear
10:35 PM 33.8 °F 25.3 °F 23.0 °F 65% 30.48 in - North 11.5 mph - N/A   Clear
10:55 PM 35.6 °F 27.1 °F 21.2 °F 56% 30.49 in 10.0 mi North 12.7 mph - N/A   Clear
11:15 PM 35.6 °F 28.0 °F 23.0 °F 60% 30.49 in 10.0 mi North 10.4 mph - N/A   Clear
11:35 PM 33.8 °F 27.7 °F 21.2 °F 60% 30.49 in - NW 6.9 mph - N/A   Clear
11:55 PM 30.2 °F 23.4 °F 23.0 °F 75% 30.49 in - NW 6.9 mph - N/A   Clear